Weather History for Cedar City, UT

Change the Weather History Date:

Thursday, October 4, 2012

  Actual Average Record
Temperature  
Mean Temperature 61 °F 54 °F  
Max Temperature 79 °F 71 °F 84 °F (1952)
Min Temperature 43 °F 37 °F 23 °F (2013)
Degree Days  
Heating Degree Days 4 11  
Month to date heating degree days 12 41  
Since 1 July heating degree days 84 184  
Cooling Degree Days 0 0  
Month to date cooling degree days 0 0  
Year to date cooling degree days 715 588  
Growing Degree Days 12 (Base 50)    
Moisture  
Dew Point 25 °F    
Average Humidity 28    
Maximum Humidity 42    
Minimum Humidity 13    
Precipitation  
Precipitation 0.00 in 0.04 in 0.78 in (2010)
Month to date precipitation 0.00 0.14  
Year to date precipitation 9.86 8.34  
Sea Level Pressure  
Sea Level Pressure 29.97 in    
Wind  
Wind Speed 6 mph (SSW)    
Max Wind Speed 20 mph    
Max Gust Speed 26 mph    
Visibility 10 miles    
Events      
T = Trace of Precipitation, MM = Missing Value Source: NWS Daily Summary

Daily Weather History Graph

Daily Weather History Graph

Search for Another Location

Airport:

Trip Planner

Search our weather history database for the weather conditions in past years. The results will help you decide how hot, cold, wet, or windy it might be!

Date:

Astronomy

Oct. 04, 2012 Rise Set
Actual Time 7:31 AM MDT 7:10 PM MDT
Civil Twilight 7:04 AM MDT 7:36 PM MDT
Nautical Twilight 6:34 AM MDT 8:06 PM MDT
Astronomical Twilight 6:04 AM MDT 8:37 PM MDT
Moon 9:53 PM MDT (10/4) 11:46 AM MDT (10/4)
Length of Visible Light 12h 31m
Length of Day
11h 38m
Waning Gibbous, 81% of the Moon is Illuminated
Oct 4
Waning Gibbous
Oct 8
Last Quarter
Oct 15
New
Oct 21
First Quarter
Oct 29
Full

Hourly Weather History & Observations

Time (MDT) Temp. Dew Point Humidity Pressure Visibility Wind Dir Wind Speed Gust Speed Precip Events Conditions
12:53 AM 51.1 °F 26.1 °F 38% 29.96 in 10.0 mi South 3.5 mph - N/A   Clear
1:53 AM 51.1 °F 25.0 °F 36% 29.96 in 10.0 mi Calm Calm - N/A   Clear
2:53 AM 53.1 °F 26.1 °F 35% 29.96 in 10.0 mi SSE 3.5 mph - N/A   Clear
3:53 AM 50.0 °F 26.1 °F 39% 29.96 in 10.0 mi SSE 4.6 mph - N/A   Clear
4:53 AM 46.9 °F 26.1 °F 44% 29.97 in 10.0 mi SE 4.6 mph - N/A   Clear
5:53 AM 46.0 °F 26.1 °F 46% 30.00 in 10.0 mi Calm Calm - N/A   Clear
6:53 AM 48.0 °F 14.0 °F 26% 30.01 in 10.0 mi Calm Calm - N/A   Clear
7:53 AM 46.9 °F 25.0 °F 42% 30.04 in 10.0 mi SSE 3.5 mph - N/A   Clear
8:53 AM 53.1 °F 21.0 °F 29% 30.03 in 10.0 mi Calm Calm - N/A   Clear
9:53 AM 57.0 °F 21.0 °F 25% 30.04 in 10.0 mi Calm Calm - N/A   Clear
10:53 AM 63.0 °F 18.0 °F 18% 30.03 in 10.0 mi Calm Calm - N/A   Clear
11:53 AM 70.0 °F 25.0 °F 18% 30.00 in 10.0 mi Variable 3.5 mph - N/A   Clear
12:53 PM 75.9 °F 28.9 °F 18% 29.99 in 10.0 mi SW 13.8 mph - N/A   Clear
1:53 PM 79.0 °F 28.9 °F 16% 29.95 in 10.0 mi SW 9.2 mph 18.4 mph N/A   Clear
2:53 PM 78.1 °F 27.0 °F 15% 29.92 in 10.0 mi SSW 11.5 mph 18.4 mph N/A   Clear
3:53 PM 79.0 °F 27.0 °F 15% 29.91 in 10.0 mi SW 12.7 mph 20.7 mph N/A   Clear
4:53 PM 77.0 °F 24.1 °F 14% 29.92 in 10.0 mi SSW 18.4 mph 25.3 mph N/A   Clear
5:53 PM 75.0 °F 27.0 °F 17% 29.92 in 10.0 mi SW 11.5 mph 25.3 mph N/A   Clear
6:53 PM 71.1 °F 25.0 °F 18% 29.93 in 10.0 mi SSW 15.0 mph 24.2 mph N/A   Clear
7:53 PM 66.9 °F 26.1 °F 21% 29.95 in 10.0 mi SSW 11.5 mph - N/A   Clear
8:53 PM 62.1 °F 26.1 °F 25% 29.95 in 10.0 mi SSW 8.1 mph - N/A   Clear
9:53 PM 61.0 °F 28.0 °F 29% 29.96 in 10.0 mi WSW 6.9 mph - N/A   Clear
10:53 PM 59.0 °F 28.0 °F 31% 29.96 in 10.0 mi SW 6.9 mph - N/A   Scattered Clouds
11:53 PM 55.0 °F 27.0 °F 34% 29.95 in 10.0 mi South 5.8 mph - N/A   Clear